When you browse on this site, cookies collect data to enhance your experience and personalize the content and advertising you see.
Visit our Privacy Policy to learn more. By continuing to use the site, you agree to this use of cookies and data.
  • In Portugal
  • List of Countries
  • For 7 days
  • Water Temperature
  • Satellite Maps
  • Weather Map
  • Weather Widgets
  • user-avatar
    Login

    Hourly Weather Borovec

    Today, 21 April, Sunday

    Time Temperature Precipitation Wind Pressure Humidity
    00:00 +4°C° 0 mm 0 mps 717 mmHg 73%
    01:00 +3°C° 0 mm 0 mps 717 mmHg 72%
    02:00 +3°C° 0 mm 0 mps 717 mmHg 72%
    03:00 +3°C° 0 mm 0 mps 717 mmHg 71%
    04:00 +4°C° 0 mm 1 mps 716 mmHg 71%
    05:00 +4°C° 0 mm 1 mps 716 mmHg 70%
    06:00 +5°C° 0 mm 1 mps 716 mmHg 63%
    07:00 +7°C° 0 mm 1 mps 716 mmHg 57%
    08:00 +9°C° 0 mm 1 mps 716 mmHg 50%
    09:00 +11°C° 0 mm 1 mps 716 mmHg 47%
    10:00 +13°C° 0 mm 1 mps 716 mmHg 44%
    11:00 +15°C° 0 mm 1 mps 716 mmHg 41%
    12:00 +16°C° 0 mm 1 mps 715 mmHg 39%
    13:00 +16°C° 0 mm 1 mps 715 mmHg 37%
    14:00 +18°C° 0 mm 1 mps 715 mmHg 35%
    15:00 +18°C° 0.1 mm 1 mps 714 mmHg 38%
    16:00 +16°C° 0.1 mm 1 mps 714 mmHg 40%
    17:00 +16°C° 0.1 mm 1 mps 713 mmHg 42%
    18:00 +14°C° 0 mm 1 mps 713 mmHg 49%
    19:00 +12°C° 0 mm 1 mps 713 mmHg 56%
    20:00 +9°C° 0 mm 0 mps 713 mmHg 63%
    21:00 +10°C° 0 mm 1 mps 713 mmHg 65%
    22:00 +9°C° 0 mm 1 mps 713 mmHg 67%
    23:00 +8°C° 0 mm 1 mps 713 mmHg 69%

    Tomorrow, 22 April, Monday

    Time Temperature Precipitation Wind Pressure Humidity
    00:00 +8°C° 0 mm 1 mps 713 mmHg 69%
    01:00 +7°C° 0 mm 1 mps 713 mmHg 69%
    02:00 +7°C° 0 mm 1 mps 713 mmHg 69%
    03:00 +7°C° 0 mm 1 mps 712 mmHg 69%
    04:00 +6°C° 0 mm 1 mps 712 mmHg 69%
    05:00 +6°C° 0 mm 1 mps 712 mmHg 69%
    06:00 +8°C° 0 mm 1 mps 712 mmHg 63%
    07:00 +9°C° 0 mm 1 mps 712 mmHg 58%
    08:00 +11°C° 0 mm 1 mps 712 mmHg 53%
    09:00 +13°C° 0 mm 1 mps 712 mmHg 47%
    10:00 +16°C° 0 mm 2 mps 712 mmHg 41%
    11:00 +18°C° 0 mm 2 mps 712 mmHg 36%
    12:00 +19°C° 0 mm 2 mps 712 mmHg 33%
    13:00 +20°C° 0 mm 2 mps 712 mmHg 31%
    14:00 +20°C° 0 mm 3 mps 711 mmHg 29%
    15:00 +20°C° 0 mm 3 mps 711 mmHg 33%
    16:00 +19°C° 0 mm 3 mps 711 mmHg 37%
    17:00 +19°C° 0 mm 3 mps 710 mmHg 41%
    18:00 +16°C° 0 mm 3 mps 710 mmHg 50%
    19:00 +13°C° 0 mm 3 mps 710 mmHg 59%
    20:00 +11°C° 0 mm 3 mps 710 mmHg 68%
    21:00 +11°C° 0 mm 3 mps 710 mmHg 71%
    22:00 +10°C° 0 mm 2 mps 711 mmHg 75%
    23:00 +10°C° 0 mm 2 mps 711 mmHg 79%

    Day after tomorrow, 23 April, Tuesday

    Time Temperature Precipitation Wind Pressure Humidity
    00:00 +10°C° 0.4 mm 2 mps 711 mmHg 82%
    01:00 +9°C° 0.4 mm 2 mps 712 mmHg 85%
    02:00 +9°C° 0.4 mm 2 mps 712 mmHg 88%
    03:00 +9°C° 1.2 mm 2 mps 712 mmHg 89%
    04:00 +8°C° 1.2 mm 2 mps 712 mmHg 90%
    05:00 +8°C° 1.2 mm 2 mps 712 mmHg 91%
    06:00 +8°C° 0.3 mm 3 mps 712 mmHg 89%
    07:00 +9°C° 0.3 mm 3 mps 712 mmHg 87%
    08:00 +9°C° 0.3 mm 3 mps 712 mmHg 85%
    09:00 +11°C° 0.1 mm 3 mps 712 mmHg 78%
    10:00 +13°C° 0.1 mm 4 mps 712 mmHg 71%
    11:00 +14°C° 0.1 mm 4 mps 713 mmHg 64%
    12:00 +16°C° 0 mm 5 mps 713 mmHg 59%
    13:00 +17°C° 0 mm 5 mps 713 mmHg 55%
    14:00 +19°C° 0 mm 5 mps 713 mmHg 50%
    15:00 +19°C° 0 mm 5 mps 713 mmHg 52%
    16:00 +17°C° 0 mm 5 mps 712 mmHg 54%
    17:00 +17°C° 0 mm 5 mps 712 mmHg 56%
    18:00 +15°C° 0 mm 4 mps 712 mmHg 63%
    19:00 +13°C° 0 mm 3 mps 712 mmHg 69%
    20:00 +12°C° 0 mm 3 mps 712 mmHg 76%
    21:00 +12°C° 0 mm 2 mps 712 mmHg 79%
    22:00 +10°C° 0 mm 2 mps 713 mmHg 82%
    23:00 +9°C° 0 mm 2 mps 713 mmHg 85%

    24 April, Wednesday

    Time Temperature Precipitation Wind Pressure Humidity
    00:00 +9°C° 0 mm 2 mps 713 mmHg 85%
    01:00 +9°C° 0 mm 2 mps 713 mmHg 85%
    02:00 +8°C° 0 mm 2 mps 714 mmHg 85%
    03:00 +9°C° 0 mm 1 mps 714 mmHg 84%
    04:00 +9°C° 0 mm 1 mps 714 mmHg 84%
    05:00 +9°C° 0 mm 1 mps 714 mmHg 83%
    06:00 +10°C° 0 mm 1 mps 715 mmHg 76%
    07:00 +12°C° 0 mm 1 mps 715 mmHg 69%
    08:00 +14°C° 0 mm 1 mps 716 mmHg 62%
    09:00 +16°C° 0 mm 1 mps 716 mmHg 56%
    10:00 +19°C° 0 mm 2 mps 716 mmHg 50%
    11:00 +21°C° 0 mm 2 mps 716 mmHg 44%
    12:00 +23°C° 0 mm 2 mps 716 mmHg 43%
    13:00 +24°C° 0 mm 2 mps 716 mmHg 41%
    14:00 +25°C° 0 mm 2 mps 716 mmHg 39%
    15:00 +24°C° 0 mm 3 mps 715 mmHg 42%
    16:00 +24°C° 0 mm 3 mps 715 mmHg 45%
    17:00 +22°C° 0 mm 3 mps 715 mmHg 48%
    18:00 +20°C° 0 mm 3 mps 715 mmHg 57%
    19:00 +18°C° 0 mm 2 mps 715 mmHg 66%
    20:00 +16°C° 0 mm 2 mps 715 mmHg 76%
    21:00 +15°C° 0 mm 2 mps 715 mmHg 79%
    22:00 +14°C° 0 mm 2 mps 715 mmHg 83%
    23:00 +13°C° 0 mm 1 mps 715 mmHg 87%

    25 April, Thursday

    Time Temperature Precipitation Wind Pressure Humidity
    00:00 +13°C° 0 mm 1 mps 715 mmHg 88%
    01:00 +13°C° 0 mm 1 mps 715 mmHg 88%
    02:00 +12°C° 0 mm 1 mps 715 mmHg 89%
    03:00 +12°C° 0 mm 1 mps 715 mmHg 89%
    04:00 +12°C° 0 mm 1 mps 715 mmHg 88%
    05:00 +11°C° 0 mm 1 mps 715 mmHg 88%
    06:00 +13°C° 0 mm 1 mps 715 mmHg 82%
    07:00 +15°C° 0 mm 1 mps 716 mmHg 76%
    08:00 +16°C° 0 mm 1 mps 716 mmHg 70%
    09:00 +19°C° 0 mm 1 mps 717 mmHg 62%
    10:00 +20°C° 0 mm 2 mps 717 mmHg 55%
    11:00 +23°C° 0 mm 2 mps 717 mmHg 48%
    12:00 +24°C° 0 mm 2 mps 717 mmHg 46%
    13:00 +25°C° 0 mm 2 mps 716 mmHg 44%
    14:00 +26°C° 0 mm 2 mps 716 mmHg 42%
    15:00 +25°C° 0.1 mm 2 mps 716 mmHg 45%
    16:00 +25°C° 0.1 mm 2 mps 715 mmHg 48%
    17:00 +24°C° 0.1 mm 2 mps 715 mmHg 52%
    18:00 +21°C° 0.2 mm 2 mps 715 mmHg 59%
    19:00 +19°C° 0.2 mm 2 mps 714 mmHg 67%
    20:00 +17°C° 0.2 mm 2 mps 714 mmHg 75%
    21:00 +16°C° 0.1 mm 2 mps 714 mmHg 77%
    22:00 +16°C° 0.1 mm 2 mps 714 mmHg 79%
    23:00 +15°C° 0.1 mm 2 mps 714 mmHg 81%

    26 April, Friday

    Time Temperature Precipitation Wind Pressure Humidity
    00:00 +15°C° 0 mm 1 mps 714 mmHg 83%
    01:00 +14°C° 0 mm 1 mps 714 mmHg 86%
    02:00 +14°C° 0 mm 1 mps 714 mmHg 88%
    03:00 +13°C° 0 mm 1 mps 713 mmHg 88%
    04:00 +13°C° 0 mm 1 mps 713 mmHg 89%
    05:00 +13°C° 0 mm 1 mps 713 mmHg 89%
    06:00 +15°C° 0 mm 1 mps 713 mmHg 83%
    07:00 +16°C° 0 mm 1 mps 714 mmHg 76%
    08:00 +19°C° 0 mm 1 mps 714 mmHg 70%
    09:00 +21°C° 0 mm 1 mps 714 mmHg 62%
    10:00 +23°C° 0 mm 1 mps 714 mmHg 54%
    11:00 +25°C° 0 mm 1 mps 714 mmHg 46%
    12:00 +26°C° 0 mm 1 mps 713 mmHg 43%
    13:00 +27°C° 0 mm 1 mps 713 mmHg 40%
    14:00 +28°C° 0 mm 1 mps 712 mmHg 37%
    15:00 +26°C° 0.4 mm 1 mps 712 mmHg 42%
    16:00 +25°C° 0.4 mm 1 mps 711 mmHg 47%
    17:00 +24°C° 0.4 mm 1 mps 711 mmHg 52%
    18:00 +21°C° 0.4 mm 2 mps 711 mmHg 60%
    19:00 +19°C° 0.4 mm 2 mps 710 mmHg 68%
    20:00 +18°C° 0.4 mm 2 mps 710 mmHg 76%
    21:00 +17°C° 0.1 mm 2 mps 710 mmHg 79%
    22:00 +16°C° 0.1 mm 2 mps 710 mmHg 81%
    23:00 +16°C° 0.1 mm 2 mps 710 mmHg 84%
    Show more